[TLELIST] Archives

 

Current TLEs <23 NOV 2005>

November 23rd 2005 PDT

HST 1 20580U 90037B 05326.29929411 .00000658 00000-0 38726-4 0 4766 2 20580 28.4689 318.4303 0004067 150.6508 209.4309 14.99899338654003 ISS 1 25544U 98067A 05327.33116898 .00010611 00000-0 82393-4 0 8094 2 25544 51.6432 165.2538 0008383 318.9567 45.9001 15.72412423400738 CHANDRA 1 25867U 99040B 05326.45833333 .00000000 00000-0 00000+0 0 8581 2 25867 58.2722 100.5529 5686220 295.7175 352.4867 0.37789707 1210 FLOATING POTENTIAL PROBE 1 28 ...Continue Reading

Current TLEs <15 NOV 2005>

November 15th 2005 PDT

HST 1 20580U 90037B 05319.24600231 .00000613 00000-0 35233-4 0 4715 2 20580 28.4685 4.3936 0003728 76.2455 283.8548 14.99892118652940 ISS 1 25544U 98067A 05319.44930556 .00016043 00000-0 12313-3 0 7573 2 25544 51.6451 205.6249 0008242 284.3285 76.2474 15.72221451399494 CHANDRA 1 25867U 99040B 05318.58333333 .00000000 00000-0 00000+0 0 8558 2 25867 58.1753 100.6616 5702282 295.9070 0.3710 0.37807185 1211 FLOATING POTENTIAL PROBE 1 28 ...Continue Reading

Current TLEs <12 NOV 2005>

November 12th 2005 PDT

HST 1 20580U 90037B 05316.51782883 .00000519 00000-0 27840-4 0 4693 2 20580 28.4686 22.1671 0003735 47.2422 312.8456 14.99889323652535 ISS 1 25544U 98067A 05316.99005253 .00012660 00000-0 98544-4 0 7423 2 25544 51.6445 218.2193 0008339 274.7953 197.4014 15.72132331399109 CHANDRA 1 25867U 99040B 05315.91666667 .00000000 00000-0 00000+0 0 8540 2 25867 58.1254 100.7713 5702613 295.8562 357.4240 0.37805667 1216 FLOATING POTENTIAL PROBE 1 28 ...Continue Reading

Update

November 9th 2005 PDT

Good day all, This is just a quick note to let everyone know that I have had a few requests to include the Floating Potential Probe on the list for a short period of time, starting with the next report. Since it is due to re-enter in about 100 days, I may add it back on till it does decay. Please also note that in the past few months, I have been trying to keep the list going at three times a week, mainly on Monday's, Wednesday's and Friday's. But due to work schedule and work load I have had to deviate the schedul ...Continue Reading

Current TLEs <09 NOV 2005>

November 9th 2005 PDT

HST 1 20580U 90037B 05312.65845312 .00000610 00000-0 35003-4 0 4660 2 20580 28.4680 47.3206 0003232 2.3339 357.7272 14.99885985651952 ISS 1 25544U 98067A 05313.37384259 .00021345 00000-0 14566-3 0 7182 2 25544 51.6438 236.7563 0001837 117.5084 23.7301 15.74783385398531 CHANDRA 1 25867U 99040B 05313.29166667 .00000000 00000-0 00000+0 0 8533 2 25867 58.1031 100.8508 5696320 295.8607 0.1045 0.37793079 1217 These 2-Line Elements (TLEs) ...Continue Reading

Current TLEs <07 NOV 2005>

November 7th 2005 PDT

HST 1 20580U 90037B 05308.53290520 .00000508 00000-0 26936-4 0 4635 2 20580 28.4663 74.2152 0003509 315.3990 44.6315 14.99881146651336 ISS 1 25544U 98067A 05308.85067256 .00021626 00000-0 14887-3 0 6877 2 25544 51.6440 259.9988 0001980 107.5762 295.1293 15.74572912397821 CHANDRA 1 25867U 99040B 05308.00000000 .00000000 00000-0 00000+0 0 8512 2 25867 58.0544 100.8887 5695309 296.0606 359.5968 0.37796731 1216 These 2-Line Elements (TLEs) ...Continue Reading

Current TLEs <03 NOV 2005>

November 3rd 2005 PDT

HST 1 20580U 90037B 05305.73817287 .00000455 00000-0 22731-4 0 4617 2 20580 28.4657 92.4276 0003609 287.4383 72.5811 14.99878835650919 ISS 1 25544U 98067A 05307.47170139 .00020087 00000-0 13899-3 0 6758 2 25544 51.6440 267.0863 0002019 104.2620 36.6676 15.74506604397608 CHANDRA 1 25867U 99040B 05305.37500000 .00000000 00000-0 00000+0 0 8503 2 25867 58.0021 100.9557 5699315 296.0923 2.1820 0.37805194 1216 These 2-Line Elements (TLEs) ...Continue Reading

Current TLEs <29 OCT 2005>

October 29th 2005 PDT

HST 1 20580U 90037B 05302.87689689 .00000526 00000-0 28384-4 0 4598 2 20580 28.4656 111.0738 0003504 258.6637 101.3557 14.99877410650483 ISS 1 25544U 98067A 05302.94763788 .00016034 00000-0 11268-3 0 6477 2 25544 51.6440 290.3308 0002034 88.3714 313.3840 15.74336765396891 CHANDRA 1 25867U 99040B 05302.70833333 .00000000 00000-0 00000+0 0 8493 2 25867 57.9662 101.0527 5699169 296.0863 359.1231 0.37803118 1219 These 2-Line Elements (TLEs) ...Continue Reading

Current TLEs <26 OCT 2005>

October 26th 2005 PDT

HST 1 20580U 90037B 05298.88441542 .00000437 00000-0 21312-4 0 4569 2 20580 28.4655 137.0943 0003861 217.6323 142.3995 14.99874212649881 ISS 1 25544U 98067A 05299.47761419 .00016269 00000-0 11423-3 0 6247 2 25544 51.6441 308.1558 0001225 89.5866 72.6968 15.74342378396342 CHANDRA 1 25867U 99040B 05297.37500000 .00000000 00000-0 00000+0 0 8479 2 25867 57.9491 101.1603 5694185 296.1959 353.0152 0.37790098 1212 These 2-Line Elements (TLEs) ...Continue Reading

Current TLEs <21 OCT 2005>

October 21st 2005 PDT

HST 1 20580U 90037B 05294.75884666 .00000649 00000-0 38072-4 0 4532 2 20580 28.4662 163.9843 0003993 176.3505 183.7097 14.99872196649268 ISS 1 25544U 98067A 05294.95524905 .00018598 00000-0 13075-3 0 5995 2 25544 51.6438 331.3877 0001048 90.5192 344.6268 15.74196937395631 CHANDRA 1 25867U 99040B 05294.75000000 .00000000 00000-0 00000+0 0 8462 2 25867 57.9258 101.1875 5697826 296.2728 355.6206 0.37795010 1211 These 2-Line Elements (TLEs) ...Continue Reading
  • This mailing list is a public mailing list - anyone may join or leave, at any time.
  • This mailing list is announce-only.

International Space Station (ISS) / Hubble Space Telescope (HST) / Chandra X-Ray Observatory Orbital Data via EMAIL

Privacy Policy:

Private list